Location: Newark
(41.9000°N, 12.4833°E)
Time: 10:54:06
(UTC+00:00)

EO-88 - Pass Details

Date: 24 May 2019
Orbit: 484 x 494 km, 97.4° (Epoch: 16 June)

Event Time Altitude Azimuth Distance (km) Brightness Sun altitude
Exits shadow 21:50:04 13° 262° (W) 1,522 ? -24.8°
Maximum altitude 21:50:25 13° 268° (W) 1,515 ? -24.8°
Drops below altitude 10° 21:52:09 10° 297° (WNW) 1,695 ? -24.9°
Sets 21:55:15 0° 326° (NNW) 2,585 ? -25.1°
